GW4159 Weather Reports


Display with metric or nautical units.
time (UTC)temp
F
wind
direction
speed
MPH
gust
MPH
rain 1hr
in
rain 24hr
in
rain mn
in
humidity
%
barometer
mb
20260510141554 63 153 6.0 9.0 0.06 0.10 0.10 86 1011.6
20260510140053 64 151 5.0 9.0 0.06 0.09 0.09 86 1011.5
20260510134524 64 135 5.0 10.0 0.04 0.06 0.06 85 1011.6
20260510133020 64 139 6.0 9.0 0.04 0.05 0.05 84 1011.8
20260510131517 64 145 6.0 11.0 0.03 0.03 0.03 83 1011.8
20260510130017 65 143 6.0 12.0 0.02 0.02 0.02 82 1011.8
20260510124516 65 158 8.0 12.0 0.02 0.02 0.02 81 1012.0
20260510123025 66 137 6.0 10.0 0.01 0.01 0.01 80 1012.0
20260510121546 66 133 5.0 11.0 0.00 0.00 0.00 80 1012.0
20260510120045 66 107 7.0 10.0 0.00 0.00 0.00 79 1011.9
20260510114515 66 121 4.0 7.0 0.00 0.00 0.00 78 1011.9
20260510113019 65 91 6.0 8.0 0.00 0.00 0.00 79 1011.8
20260510111512 65 109 5.0 9.0 0.00 0.00 0.00 80 1012.0
20260510110018 65 108 7.0 10.0 0.00 0.00 0.00 80 1012.0
20260510104510 66 89 7.0 9.0 0.00 0.00 0.00 80 1011.9
20260510103010 66 81 4.0 7.0 0.00 0.00 0.00 80 1012.0
20260510101506 66 100 2.0 4.0 0.00 0.00 0.00 80 1012.1
20260510100006 65 104 2.0 6.0 0.00 0.00 0.00 80 1012.2
20260510094515 65 91 3.0 6.0 0.00 0.00 0.00 80 1012.3
20260510093010 65 85 3.0 4.0 0.00 0.00 0.00 80 1012.3
20260510091505 65 101 3.0 4.0 0.00 0.00 0.00 80 1012.3
20260510090002 65 111 0.0 3.0 0.00 0.00 0.00 79 1012.3
20260510084502 65 121 2.0 4.0 0.00 0.00 0.00 79 1012.4
20260510083002 65 106 4.0 7.0 0.00 0.00 0.00 78 1012.3
20260510081559 65 129 3.0 6.0 0.00 0.00 0.00 79 1012.3
20260510080058 65 140 3.0 6.0 0.00 0.00 0.00 80 1012.2
20260510074558 65 135 5.0 8.0 0.00 0.00 0.00 80 1012.1
20260510073057 65 135 7.0 11.0 0.00 0.00 0.00 81 1012.2
20260510071528 65 129 8.0 13.0 0.00 0.00 0.00 84 1012.4
20260510070031 66 110 10.0 12.0 0.00 0.00 0.00 84 1012.4
20260510064524 65 116 7.0 10.0 0.00 0.00 0.00 84 1012.5
20260510063024 65 68 10.0 12.0 0.00 0.00 0.00 83 1012.2
20260510061522 64 37 7.0 10.0 0.00 0.00 0.00 85 1012.2
20260510060021 63 349 6.0 8.0 0.00 0.00 0.00 84 1012.2
20260510054521 63 359 3.0 5.0 0.00 0.00 0.00 84 1012.3
20260510053042 62 332 3.0 5.0 0.00 0.00 0.00 83 1012.4
20260510051516 62 359 5.0 9.0 0.00 0.00 0.00 83 1012.6
20260510051514 61 277 5.0 9.0 0.00 0.00 0.00 83 1012.6
20260510050012 62 264 9.0 11.0 0.00 0.00 0.00 82 1012.8
20260510044508 64 233 6.0 9.0 0.00 0.00 0.00 84 1013.0
20260510043005 65 156 4.0 13.0 0.00 0.00 0.00 84 1012.8
20260510041507 66 127 8.0 12.0 0.00 0.00 0.00 85 1013.0
20260510040004 66 138 9.0 14.0 0.00 0.00 0.00 85 1013.0
20260510034501 66 115 7.0 11.0 0.00 0.00 0.00 84 1013.0
20260510033030 66 124 7.0 12.0 0.00 0.00 0.00 83 1012.9
20260510031528 66 108 6.0 11.0 0.00 0.00 0.00 81 1013.0
20260510030025 66 106 7.0 9.0 0.00 0.00 0.00 79 1013.2
20260510024522 65 120 5.0 8.0 0.00 0.00 0.00 79 1013.2
20260510023022 64 118 3.0 6.0 0.00 0.00 0.00 79 1013.2
20260510021535 64 162 0.0 0.0 0.00 0.00 0.00 78 1013.2
20260510020017 64 162 0.0 0.0 0.00 0.00 0.00 78 1013.2
20260510014516 64 161 0.0 0.0 0.00 0.00 0.00 77 1013.3
20260510013021 64 162 0.0 0.0 0.00 0.00 0.00 76 1013.5
20260510011510 65 162 0.0 5.0 0.00 0.00 0.00 76 1013.5
20260510010005 66 199 4.0 8.0 0.00 0.00 0.00 76 1013.6
20260510004503 67 165 5.0 9.0 0.00 0.00 0.00 75 1013.8
20260510003001 66 135 4.0 7.0 0.00 0.00 0.00 75 1013.8
20260510001501 67 116 3.0 8.0 0.00 0.00 0.00 76 1013.7
20260509234556 67 115 8.0 10.0 0.00 0.00 0.00 75 1013.9
20260509233056 66 119 5.0 9.0 0.00 0.00 0.00 75 1014.1
20260509231553 67 110 6.0 9.0 0.00 0.00 0.00 75 1014.1
20260509230054 67 95 7.0 10.0 0.00 0.00 0.00 75 1014.1
20260509224547 67 97 7.0 10.0 0.00 0.00 0.00 74 1014.2
20260509223045 67 102 7.0 10.0 0.00 0.00 0.00 73 1014.2
20260509221544 67 102 7.0 9.0 0.00 0.00 0.00 72 1014.3
20260509220039 67 111 7.0 9.0 0.00 0.00 0.00 74 1014.3
20260509214547 66 105 7.0 10.0 0.00 0.00 0.00 75 1014.4
20260509213036 66 97 6.0 9.0 0.00 0.00 0.00 77 1014.5
20260509211533 66 102 5.0 9.0 0.00 0.00 0.00 77 1014.6
20260509210033 67 93 5.0 8.0 0.00 0.00 0.00 77 1014.7
20260509204527 67 133 5.0 9.0 0.00 0.00 0.00 75 1014.7
20260509203027 67 110 4.0 8.0 0.00 0.00 0.00 75 1014.7
20260509201526 67 109 6.0 9.0 0.00 0.00 0.00 75 1014.7
20260509200057 67 115 6.0 9.0 0.00 0.00 0.00 75 1014.6
20260509194556 67 110 6.0 11.0 0.00 0.00 0.00 76 1014.5
20260509193029 67 136 6.0 10.0 0.00 0.00 0.00 76 1014.2
20260509191538 66 116 7.0 10.0 0.00 0.00 0.00 76 1013.9
20260509190028 67 125 7.0 11.0 0.00 0.00 0.00 76 1014.0
20260509184533 67 135 8.0 11.0 0.00 0.00 0.00 75 1014.0
20260509183029 67 135 9.0 12.0 0.00 0.00 0.00 74 1014.1
20260509181520 67 135 8.0 10.0 0.00 0.00 0.00 74 1013.9
20260509180019 67 124 5.0 9.0 0.00 0.00 0.00 73 1013.8
20260509174522 67 137 6.0 11.0 0.00 0.00 0.00 75 1013.8
20260509173016 67 125 5.0 11.0 0.00 0.00 0.00 74 1013.6
20260509171515 67 147 7.0 12.0 0.00 0.00 0.00 72 1013.7
20260509170014 67 135 8.0 12.0 0.00 0.00 0.00 70 1013.8
20260509164510 67 137 9.0 13.0 0.00 0.00 0.00 69 1014.0
20260509163011 68 132 8.0 13.0 0.00 0.00 0.00 68 1014.2
20260509161510 68 116 8.0 12.0 0.00 0.00 0.00 68 1014.2
20260509160007 67 131 6.0 11.0 0.00 0.00 0.00 68 1014.3
20260509154536 68 118 7.0 10.0 0.00 0.00 0.00 68 1014.4
20260509153044 68 134 5.0 12.0 0.00 0.00 0.00 70 1014.5
20260509151531 68 147 7.0 10.0 0.00 0.00 0.00 70 1014.8
20260509150031 68 139 8.0 12.0 0.00 0.00 0.00 69 1014.7
20260509144532 68 135 8.0 11.0 0.00 0.00 0.00 69 1014.8
20260509143029 68 129 7.0 11.0 0.00 0.00 0.00 68 1014.9